This is the latest recevied weather packets stored in our database for station/object K6POO-1. If no packets are shown the sender has not sent any weather packets the latest 10 day(s).
| Time | Temp. | Humidity | Pressure | Rain* | Wind** | Luminosity | Snow |
|---|---|---|---|---|---|---|---|
| 1788205549 | 16.67° C | 80% | 1015 hPa | 0 mm | - | 324 W/m² | - |
| 1788205244 | 16.67° C | 81% | 1015 hPa | 0 mm | - | 332 W/m² | - |
| 1788204939 | 16.67° C | 80% | 1015.1 hPa | 0 mm | - | 414 W/m² | - |
| 1788204639 | 16.67° C | 80% | 1015.1 hPa | 0 mm | - | 292 W/m² | - |
| 1788204334 | 16.67° C | 81% | 1015 hPa | 0 mm | - | 353 W/m² | - |
| 1788204030 | 16.67° C | 81% | 1015.1 hPa | 0 mm | - | 358 W/m² | - |
| 1788203726 | 16.67° C | 81% | 1015.1 hPa | 0 mm | - | 279 W/m² | - |
| 1788203421 | 16.11° C | 82% | 1015.1 hPa | 0 mm | - | 334 W/m² | - |
| 1788203117 | 16.11° C | 83% | 1015 hPa | 0 mm | - | 259 W/m² | - |
| 1788202815 | 16.67° C | 82% | 1015.1 hPa | 0 mm | - | 255 W/m² | - |
| 1788202511 | 16.11° C | 84% | 1015.1 hPa | 0 mm | - | 269 W/m² | - |
| 1788202223 | 15.56° C | 84% | 1015.1 hPa | 0 mm | - | 292 W/m² | - |
| 1788201901 | 15.56° C | 84% | 1015 hPa | 0 mm | - | 259 W/m² | - |
| 1788201596 | 15.56° C | 84% | 1015.2 hPa | 0 mm | - | 233 W/m² | - |
| 1788201311 | 15.56° C | 84% | 1015.2 hPa | 0 mm | - | 227 W/m² | - |
| 1788200989 | 15.56° C | 83% | 1015.1 hPa | 0 mm | - | 203 W/m² | - |
| 1788200684 | 16.11° C | 83% | 1015.2 hPa | 0 mm | - | 273 W/m² | - |
| 1788200380 | 15.56° C | 83% | 1015.1 hPa | 0 mm | - | 217 W/m² | - |
| 1788200076 | 15.56° C | 84% | 1015.1 hPa | 0 mm | - | 227 W/m² | - |
| 1788199775 | 15.56° C | 84% | 1015 hPa | 0 mm | - | 209 W/m² | - |
| 1788199469 | 15.56° C | 85% | 1015.1 hPa | 0 mm | - | 197 W/m² | - |
| 1788199169 | 15.56° C | 86% | 1015.1 hPa | 0 mm | - | 206 W/m² | - |
| 1788198866 | 15.56° C | 86% | 1015.2 hPa | 0 mm | - | 269 W/m² | - |
| 1788198561 | 15.56° C | 86% | 1015.1 hPa | 0 mm | - | 234 W/m² | - |
| 1788198256 | 15° C | 87% | 1015.1 hPa | 0 mm | - | 252 W/m² | - |
* Rain latest hour (hover to see other rain measurements)
** Current wind speed in m/s (hover to see current wind gust speed)